Terminal Aerodrome Forecast
Issued by NWS Charleston, WV

Current Version | Previous Version | Text Only | Print | Product List | Glossary Off
Versions: 1 2 3 4 5 6 7 8 9 10 11 12 13 14 15 16 17 18 19 20 21 22 23 24 25 26 27 28 29

000
FTUS41 KRLX 201500 AAB
TAFCRW
TAF AMD
KCRW 201506Z 2015/2112 VRB04KT P6SM VCSH SCT025 OVC060
     FM201600 16005KT 5SM -SHRA OVC030
     FM201700 16006KT P6SM SCT030 OVC060
     FM210500 00000KT 5SM BR SCT045
     FM210800 00000KT 2SM BR SCT001 SCT050
     FM211000 00000KT 1/2SM FG BKN001=

USA.gov is the U.S. government's official web portal to all federal, state and local government web resources and services.